Regional Weather Roundup
Issued by NWS

Home | Current Version | Previous Version | Graphics & Text | Print | Product List | Glossary On
Versions: 1 2 3 4 5 6 7 8 9 10 11 12 13 14 15 16 17 18 19 20 21 22 23 24 25 26 27 28 29 30 31 32 33 34 35 36 37 38 39 40 41 42 43 44 45 46 47 48 49 50
000
ASUS43 KDTX 230601
RWRMI
MICHIGAN HOURLY REGIONAL WEATHER ROUNDUP
NATIONAL WEATHER SERVICE DETROIT/PONTIAC MI
200 AM EDT MON APR 23 2018

NOTE: "FAIR" INDICATES FEW OR NO CLOUDS BELOW 12,000 FEET WITH NO
SIGNIFICANT WEATHER AND/OR OBSTRUCTION TO VISIBILITY.

MIZ047>049-052>055-059>063-066>070-074>076-081>083-230700-
SOUTHEAST LOWER MICHIGAN

CITY           SKY/WX    TMP DP  RH WIND       PRES   REMARKS
ADRIAN         FAIR      40  22  48 E8        30.28F WCI  34
6HR MIN TEMP:  40; 6HR MAX TEMP:  53;

ALMA           FAIR      39  29  67 CALM      30.33R
6HR MIN TEMP:  39; 6HR MAX TEMP:  56;

ANN ARBOR      FAIR      43  26  51 N5        30.28F
BAD AXE        FAIR      42  19  39 E3        30.35S
6HR MIN TEMP:  41; 6HR MAX TEMP:  57;

CARO           FAIR      34  25  71 NE3       30.33F
DETROIT CITY   FAIR      41  25  53 NE6       30.31F
6HR MIN TEMP:  41; 6HR MAX TEMP:  56;

DETROIT        FAIR      44  25  47 NE7       30.29F
6HR MIN TEMP:  44; 6HR MAX TEMP:  58;

FLINT          FAIR      40  25  55 E8        30.31F WCI  34
6HR MIN TEMP:  39; 6HR MAX TEMP:  57;

GROSSE ILE     FAIR      42  29  61 NE8       30.28F
6HR MIN TEMP:  42; 6HR MAX TEMP:  53;

HILLSDALE      FAIR      43  19  39 E12       30.25F
HOWELL         FAIR      42  25  51 NE3       30.29S
6HR MIN TEMP:  41; 6HR MAX TEMP:  57;


CITY           SKY/WX    TMP DP  RH WIND       PRES   REMARKS
JACKSON        FAIR      41  23  48 NE5       30.28S
6HR MIN TEMP:  40; 6HR MAX TEMP:  57;

LAMBERTVILLE   FAIR      48  26  41 E7        30.26F
6HR MIN TEMP:  46; 6HR MAX TEMP:  52;

LANSING        FAIR      42  26  53 E6        30.31R
6HR MIN TEMP:  41; 6HR MAX TEMP:  58;

LAPEER         FAIR      35  26  71 CALM      30.32F
6HR MIN TEMP:  35; 6HR MAX TEMP:  56;

MASON          FAIR      44  22  42 NE3       30.30S
6HR MIN TEMP:  44; 6HR MAX TEMP:  58;

PONTIAC        FAIR      41  24  51 NE5       30.29F
6HR MIN TEMP:  41; 6HR MAX TEMP:  58;

PORT HOPE        N/A     38  28  67 SE3       30.33F
6HR MIN TEMP:  36; 6HR MAX TEMP:  42;

PORT HURON     FAIR      32  28  86 CALM      30.33S
TRI CITIES     FAIR      40  29  64 E6        30.33F
6HR MIN TEMP:  40; 6HR MAX TEMP:  52;

MIDLAND        FAIR      35  32  87 CALM      30.33S
6HR MIN TEMP:  35; 6HR MAX TEMP:  52;

TROY           FAIR      44  23  44 N5        30.32F
SAGINAW HB     FAIR      36  27  69 NE5       30.32F WCI  32
$$
MIZ043>046-050>051-056>058-064>065-071>073-077>080-230700-
SOUTHWEST LOWER MICHIGAN

CITY           SKY/WX    TMP DP  RH WIND       PRES   REMARKS
BATTLE CREEK   FAIR      46  24  42 E6        30.27S
6HR MIN TEMP:  46; 6HR MAX TEMP:  60;

BENTON HARBOR  FAIR      46  22  38 E3        30.25S
6HR MIN TEMP:  41; 6HR MAX TEMP:  57;

BIG RAPIDS     FAIR      44  23  43 CALM      30.31S
6HR MIN TEMP:  40; 6HR MAX TEMP:  58;

COLDWATER      FAIR      45  22  40 E7        30.26F
6HR MIN TEMP:  44; 6HR MAX TEMP:  55;

FREMONT        FAIR      44  19  36 E5        30.29S
6HR MIN TEMP:  43; 6HR MAX TEMP:  60;

HOLLAND        FAIR      43  27  53 E6        30.28R
6HR MIN TEMP:  43; 6HR MAX TEMP:  61;

GRAND RAPIDS   FAIR      43  29  57 E7        30.29R
6HR MIN TEMP:  43; 6HR MAX TEMP:  59;

IONIA          FAIR      40  31  69 NE7       30.29S WCI  35
6HR MIN TEMP:  40; 6HR MAX TEMP:  59;

KALAMAZOO      FAIR      47  23  38 E7        30.26F
6HR MIN TEMP:  46; 6HR MAX TEMP:  61;

LUDINGTON      FAIR      31  28  86 CALM      30.29S
6HR MIN TEMP:  31; 6HR MAX TEMP:  53;

MARSHALL       FAIR      42  23  47 E3        30.27F
6HR MIN TEMP:  38; 6HR MAX TEMP:  57;

MOUNT PLEASANT FAIR      42  31  63 NE3       30.32S
6HR MIN TEMP:  42; 6HR MAX TEMP:  58;

MUSKEGON       FAIR      44  27  51 SE3       30.29R
6HR MIN TEMP:  44; 6HR MAX TEMP:  62;

SOUTH HAVEN    FAIR      42  26  51 CALM      30.26S
$$
MIZ016>042-230700-
NORTHERN LOWER MICHIGAN

CITY           SKY/WX    TMP DP  RH WIND       PRES   REMARKS
ALPENA         FAIR      29  26  89 CALM      30.36S
6HR MIN TEMP:  29; 6HR MAX TEMP:  46;

BEAVER ISLAND  FAIR      45  18  34 SE6       30.31F
6HR MIN TEMP:  32; 6HR MAX TEMP:  49;

BELLAIRE       FAIR      30  27  90 CALM      30.33F
6HR MIN TEMP:  30; 6HR MAX TEMP:  57;

CADILLAC       FAIR      40  23  49 CALM      30.30F
CHARLEVOIX     FAIR      35  24  62 SE5       30.35S WCI  31
6HR MIN TEMP:  35; 6HR MAX TEMP:  50;

FRANKFORT      FAIR      32  26  77 CALM      30.30F
GAYLORD        FAIR      37  19  48 CALM      30.33S
6HR MIN TEMP:  36; 6HR MAX TEMP:  55;

HARBOR SPRINGS FAIR      36  20  51 NE3       30.33S
HOUGHTON LAKE  FAIR      34  24  67 CALM      30.33F
6HR MIN TEMP:  33; 6HR MAX TEMP:  56;

MANISTEE       FAIR      31  27  85 E3        30.30F
OSCODA         FAIR      28  21  78 CALM      30.35F
6HR MIN TEMP:  28; 6HR MAX TEMP:  44;

PELLSTON       FAIR      29  22  75 CALM      30.33F
6HR MIN TEMP:  28; 6HR MAX TEMP:  54;

ROGERS CITY    FAIR      37  23  56 S3        30.36F
TRAVERSE CITY  FAIR      34  28  79 CALM      30.31F
6HR MIN TEMP:  33; 6HR MAX TEMP:  50;

$$
MIZ007>008-015-230700-
EASTERN UPPER MICHIGAN

CITY           SKY/WX    TMP DP  RH WIND       PRES   REMARKS
KINROSS        FAIR      38  19  46 SE7       30.33F WCI  33
6HR MIN TEMP:  38; 6HR MAX TEMP:  51;

MACKINAC ISLAN FAIR      44  16  32 SE8       30.33S
6HR MIN TEMP:  38; 6HR MAX TEMP:  49;

NEWBERRY       FAIR      41  17  37 S8        30.31S
6HR MIN TEMP:  31; 6HR MAX TEMP:  50;

S. S. MARIE    FAIR      38  21  50 E6        30.33F WCI  33
6HR MIN TEMP:  38; 6HR MAX TEMP:  55;

MUNISING         N/A     41  20  43 S7        30.28F
6HR MIN TEMP:  39; 6HR MAX TEMP:  56;

$$
MIZ004>006-011>014-085-230700-
CENTRAL UPPER MICHIGAN

CITY           SKY/WX    TMP DP  RH WIND       PRES   REMARKS
MANISTIQUE     FAIR      29  19  67 CALM      30.30F
6HR MIN TEMP:  28; 6HR MAX TEMP:  44;

ESCANABA       FAIR      28  23  81 CALM      30.31S
6HR MIN TEMP:  27; 6HR MAX TEMP:  49;

MENOMINEE      FAIR      32  26  78 CALM      30.31F
6HR MIN TEMP:  32; 6HR MAX TEMP:  53;

SAWYER-GWINN   FAIR      31  19  60 CALM      30.29S
6HR MIN TEMP:  31; 6HR MAX TEMP:  52;

$$
MIZ001>003-009>011-084-230700-
WESTERN UPPER MICHIGAN

CITY           SKY/WX    TMP DP  RH WIND       PRES   REMARKS
IRON MOUNTAIN  FAIR      29  21  72 CALM      30.27S
6HR MIN TEMP:  29; 6HR MAX TEMP:  57;

HOUGHTON       FAIR      41  21  44 SW5       30.23S
6HR MIN TEMP:  32; 6HR MAX TEMP:  48;

COPPER HARBOR    N/A     41  24  51 SW8       30.22S
6HR MIN TEMP:  41; 6HR MAX TEMP:  51;

IRONWOOD       FAIR      36  25  64 CALM      30.25S
6HR MIN TEMP:  35; 6HR MAX TEMP:  58;

$$

ABBREVIATIONS USED IN REMARKS
   TC - TEMPERATURE IN CELSIUS
  WCI - WIND CHILL INDEX
   HX - HEAT INDEX
  VSB - VISIBILITY





USA.gov is the U.S. government's official web portal to all federal, state and local government web resources and services.